This demonstration page uses our WeatherBlox Daily Observations layout. Learn more.

Left ArrowRight Arrow

Hourly Observations for December 3, 2016

Temp ( °F °C ) Dew Point ( °F °C ) Humidity (%) Winds ( mph kmh ) Pressure ( in mb ) Visibility ( mi km ) Precip ( " mm )
12:51 am 00:51 Cloudy 45 7.2 22 -5.6 40 40 N N/A 29.86 1011 10 16 N/A
1:51 am 01:51 Cloudy 46 7.8 22 -5.6 38 38 undefined N/A 29.85 1011 10 16 N/A
2:51 am 02:51 Cloudy 46 7.8 21 -6.1 37 37 SSE 8 13 29.86 1011 10 16 N/A
3:51 am 03:51 Cloudy 48 8.9 35 1.7 61 61 ESE 12 19 29.88 1012 10 16 N/A
4:51 am 04:51 Cloudy 44 6.7 40 4.4 85 85 ESE 8 13 29.87 1012 10 16 0.01 0.25
5:51 am 05:51 Partly Cloudy 43 6.1 39 3.9 86 86 S 10 17 29.87 1012 10 16 N/A
6:51 am 06:51 Clear 43 6.1 37 2.8 80 80 SSE 12 19 29.88 1012 10 16 N/A
7:51 am 07:51 Sunny 44 6.7 38 3.3 79 79 SE 8 13 29.89 1012 10 16 N/A
8:51 am 08:51 Sunny 48 8.9 40 4.4 74 74 E 7 11 29.91 1013 10 16 N/A
9:51 am 09:51 Sunny 52 11.1 39 3.9 61 61 SSE 9 15 29.92 1013 10 16 N/A
10:51 am 10:51 Sunny 54 12.2 37 2.8 53 53 VRB 7 11 29.92 1013 10 16 N/A
11:51 am 11:51 Sunny 57 13.9 35 1.7 44 44 S 8 13 29.89 1012 10 16 N/A
12:51 pm 12:51 Sunny 59 15 35 1.7 41 41 SSE 8 13 29.86 1011 10 16 N/A
1:51 pm 13:51 Sunny 58 14.4 36 2.2 44 44 S 3 6 29.84 1011 10 16 N/A
2:51 pm 14:51 Sunny 59 15 36 2.2 42 42 SSE 8 13 29.84 1011 10 16 N/A
3:51 pm 15:51 Sunny 59 15 37 2.8 44 44 S 7 11 29.85 1011 10 16 N/A
4:51 pm 16:51 Sunny 57 13.9 39 3.9 51 51 S 9 15 29.88 1012 10 16 N/A
5:51 pm 17:51 Clear 53 11.7 39 3.9 59 59 S 8 13 29.91 1013 10 16 N/A
6:51 pm 18:51 Mostly Clear 49 9.4 39 3.9 69 69 E 6 9 29.93 1014 10 16 N/A
7:51 pm 19:51 Mostly Clear 49 9.4 39 3.9 69 69 ESE 8 13 29.94 1014 10 16 N/A
8:51 pm 20:51 Clear 45 7.2 38 3.3 77 77 E 6 9 29.96 1015 10 16 N/A
9:51 pm 21:51 Clear 43 6.1 37 2.8 80 80 SSE 6 9 29.98 1015 10 16 N/A
10:51 pm 22:51 Clear 40 4.4 36 2.2 86 86 ESE 5 7 29.98 1015 10 16 N/A
11:51 pm 23:51 Clear 39 3.9 35 1.7 86 86 N 5 7 29.98 1015 10 16 N/A

Powered by AerisWeather